Location: Bercimuel
(41.3983°N, 3.5711°W)
Time: 11:17:43
(UTC+00:00)

Fengyun 1C - Pass Details

Date: 15 May 2026
Orbit: 795 x 808 km, 98.9° (Epoch: 9 June)

Event Time Altitude Azimuth Distance (km) Brightness Sun altitude
Exits shadow 22:00:06 53° 158° (SSE) 980 4.6 -22.4°
Maximum altitude 22:01:25 85° 74° (ENE) 807 4.5 -22.6°
Drops below altitude 10° 22:06:41 10° 347° (NNW) 2,383 8.0 -23.1°
Sets 22:09:02 0° 347° (NNW) 3,320 9.0 -23.3°
